Location: Guilderland
(42.7045°N, 73.9115°W)
Time: 04:39:58
(UTC+00:00)

Meteor 2-10 Rocket - Pass Details

Date: 24 January 2020
Orbit: 733 x 885 km, 81.2° (Epoch: 26 February)

Event Time Altitude Azimuth Distance (km) Brightness Sun altitude
Rises 22:51:25 0° 353° (N) 3,313 6.7 -10.0°
Reaches altitude 10° 22:53:54 10° 358° (N) 2,355 5.9 -10.4°
Maximum altitude 22:59:05 55° 76° (ENE) 920 3.6 -11.3°
Drops below altitude 10° 23:04:03 10° 154° (SSE) 2,259 5.8 -12.2°
Sets 23:06:23 0° 159° (SSE) 3,165 6.6 -12.6°
